MUOS-2

Last updated on Thu Aug 13 2026 00:02:59 GMT+0000 (Coordinated Universal Time)

1 39206U 13036A 26224.64479237 -.00000030 00000+0 00000+0 0 9993 2 39206 5.1052 45.5558 0054771 176.2844 143.3489 1.00271678 47750
UTC large
Height (km)
Speed (km/s)
/
Latitude / Longitude
Inclination (degrees)
Orbital Period (minutes)
Azimuth
Elevation
Range (km)
Doppler Factor

Next 0 passes for location: London (51.5072 / 0.1276)

No passes found over London.
MUOS-2